Location: Unspecified
(48.8656°N, 0.0000°E)
Time: 14:27:32
(UTC+00:00)

Transit 2A Rocket - Pass Details

Date: 24 June 2019
Orbit: 591 x 913 km, 66.7° (Epoch: 24 August)

Event Time Altitude Azimuth Distance (km) Brightness Sun altitude
Rises 17:44:09 0° 324° (NW) 3,341 9.1 20.3°
Reaches altitude 10° 17:46:43 10° 327° (NNW) 2,355 8.4 19.9°
Maximum altitude 17:52:05 71° 52° (NE) 778 5.2 19.1°
Drops below altitude 10° 17:56:55 10° 136° (SE) 2,126 6.9 18.3°
Sets 17:59:08 0° 139° (SE) 2,992 7.6 17.9°
